Lapse_Rate
8.0 8.0 7.7 7.7 7.9 7.9 7.8 7.7 7.7 7.6 7.5 7.6 7.5 7.3 7.4 7.2 7.2 7.1 7.1 6.8 6.6 6.5 6.7 6.8 6.9 6.7 6.5 6.2 6.1 6.2 6.3 6.4 6.6 6.7 6.3 6.2 6.2 6.2 6.2 6.3 6.2 6.2 6.3
7.7 7.9 8.1 7.9 7.9 7.9 7.9 7.8 7.9 8.0 7.8 7.6 7.5 7.3 7.1 7.0 7.1 7.0 7.0 7.1 6.8 6.6 6.8 6.9 6.9 6.8 6.6 6.4 6.3 6.3 6.5 6.6 6.6 6.4 6.2 6.2 6.2 6.1 6.2 6.2 6.3 6.2 6.1
8.0 8.2 8.2 8.1 7.9 7.9 7.9 7.9 7.9 8.0 8.0 7.9 7.7 7.6 7.3 7.0 7.1 7.3 7.2 7.2 6.9 6.6 6.7 6.8 6.9 6.9 6.8 6.5 6.5 6.4 6.4 6.4 6.4 6.3 6.3 6.2 6.3 6.3 6.4 6.3 6.2 6.1 6.1
8.3 8.3 8.2 8.1 7.9 7.9 8.0 7.9 7.9 8.1 8.0 8.0 7.9 8.0 7.8 7.6 7.2 7.2 7.3 7.2 7.0 6.7 6.7 6.7 6.8 7.0 7.1 6.7 6.4 6.4 6.4 6.4 6.3 6.3 6.2 6.1 6.0 6.1 6.6 6.7 6.5 6.5 6.6
8.0 8.1 8.4 8.3 8.1 8.0 8.0 8.1 8.0 8.0 8.1 8.2 8.2 8.2 8.0 7.6 7.4 7.2 7.2 7.3 7.1 7.0 6.9 6.9 6.8 7.0 6.9 6.8 6.5 6.2 6.1 6.1 6.1 6.1 6.1 6.0 5.9 5.9 5.9 6.2 6.6 6.8 6.5
8.4 8.4 8.5 8.7 8.3 8.2 8.1 8.0 8.1 8.3 8.0 7.9 8.2 8.3 8.1 7.8 7.5 7.3 7.3 7.3 7.0 7.0 6.9 7.0 7.0 7.0 6.9 6.8 6.6 6.3 6.3 6.1 6.1 6.1 6.0 5.8 5.8 5.8 5.9 6.0 6.1 6.1 6.2
8.7 8.6 8.5 8.4 8.5 8.2 8.1 8.1 8.1 8.3 8.4 8.2 8.1 8.2 8.2 7.8 7.5 7.3 7.3 7.3 7.1 7.2 7.1 6.9 7.0 7.0 6.9 6.7 6.5 6.4 6.4 6.4 6.2 5.9 5.8 5.8 5.7 6.0 6.1 6.1 6.1 6.2 6.2
8.3 8.6 8.6 8.8 8.6 8.4 8.3 8.3 8.3 8.3 8.3 8.6 8.4 8.4 8.1 7.8 7.4 7.2 7.3 7.2 7.0 7.1 6.8 6.6 6.6 6.8 6.6 6.4 6.2 6.2 6.2 6.3 6.0 5.9 5.9 5.7 5.8 5.9 6.0 6.1 6.0 5.9 5.6
8.4 8.1 8.5 8.5 8.6 8.6 8.5 8.5 8.3 8.3 8.3 8.6 8.5 8.3 7.8 7.3 7.1 6.9 7.1 6.8 6.9 6.9 6.5 6.6 6.7 6.6 6.4 6.2 6.0 6.0 6.0 5.6 5.8 5.8 5.8 5.7 5.7 5.8 5.9 5.7 5.5 5.2 4.7
8.1 8.2 8.0 8.2 8.6 8.7 8.8 8.8 8.4 8.2 8.5 8.4 8.3 8.2 6.9 6.8 6.8 6.7 7.0 7.1 6.7 6.6 6.7 7.0 6.6 6.3 6.1 6.0 5.9 5.8 5.4 5.5 5.4 5.6 5.6 5.5 5.5 5.7 5.8 5.5 5.1 4.9 4.5
8.7 8.6 8.3 8.5 8.7 8.9 8.9 8.7 8.5 8.4 8.6 8.7 8.3 7.5 6.9 6.7 6.6 6.5 6.5 6.7 6.7 6.7 7.0 6.9 6.5 6.1 6.0 5.9 5.8 5.7 5.1 5.1 4.6 5.3 5.3 5.4 5.4 5.6 5.3 5.1 4.9 4.7 4.3
8.4 8.1 8.3 8.6 8.7 8.9 8.6 8.7 8.7 8.8 8.8 8.8 8.3 7.8 7.1 6.7 6.5 6.3 6.2 6.2 6.2 6.6 6.7 6.7 6.3 5.9 6.0 5.9 5.4 5.1 4.6 4.5 4.4 4.7 5.0 5.2 5.4 5.3 5.0 4.9 4.8 4.4 4.0
7.8 7.9 8.1 8.9 8.9 8.9 9.1 9.0 9.0 8.9 8.9 8.9 8.4 7.6 7.2 6.8 6.6 6.5 6.4 6.3 5.9 6.4 6.3 6.6 6.2 5.7 5.8 5.0 4.8 4.6 4.4 3.9 4.1 4.6 4.9 5.1 5.2 4.9 4.9 4.8 4.5 4.1 3.9
7.5 7.8 7.6 7.9 8.7 9.1 8.8 9.0 9.2 8.7 8.8 8.4 8.0 7.4 7.1 7.0 7.0 6.9 6.7 6.5 6.1 5.9 6.2 5.8 6.0 5.7 5.6 3.8 4.7 4.4 3.8 3.4 3.8 4.6 4.6 4.9 4.9 4.7 4.7 4.5 4.2 3.8 3.6
7.3 7.8 7.6 7.8 8.0 8.1 8.6 8.9 9.0 8.6 8.2 8.0 7.6 7.4 7.2 6.9 7.0 6.9 7.0 6.9 6.4 6.1 5.8 5.0 5.6 5.6 5.3 3.8 3.9 3.6 3.3 3.5 3.9 4.2 4.3 4.5 4.7 4.6 4.5 4.3 3.8 3.5 3.7
7.0 7.5 7.6 7.6 7.4 7.5 7.8 8.3 8.5 8.4 8.1 7.7 7.6 7.5 7.3 7.2 7.0 6.9 7.4 6.2 5.9 5.6 5.9 5.8 4.4 4.8 4.8 3.9 3.4 3.4 3.2 3.5 4.1 3.1 3.8 4.2 4.6 4.4 4.3 3.9 3.7 3.7 4.1
7.4 7.0 7.2 7.2 7.3 7.6 7.7 7.8 8.1 7.9 7.8 7.6 7.5 7.5 7.3 7.4 7.4 7.1 6.6 5.9 5.8 6.0 5.7 5.9 5.3 4.4 4.0 2.7 2.9 3.2 3.3 3.8 2.8 3.0 3.5 4.3 4.4 4.3 4.1 3.9 4.0 4.0 4.1
7.3 7.2 7.3 6.9 6.2 7.1 7.3 7.7 7.9 7.7 7.5 7.6 7.6 7.6 7.5 7.4 7.2 7.3 7.4 7.3 5.9 5.3 5.6 5.6 4.3 4.3 4.0 3.2 3.1 3.3 3.5 3.4 2.6 3.0 3.7 4.1 4.3 4.3 4.0 3.8 3.9 4.2 4.2
7.2 7.2 7.3 7.3 7.3 7.2 7.3 7.4 7.4 7.5 7.7 7.7 7.7 7.6 7.5 7.5 7.4 7.5 7.6 7.2 6.1 5.6 5.6 4.7 4.7 4.1 3.7 3.0 2.8 3.2 3.8 2.5 2.6 3.3 3.8 4.1 4.3 4.1 3.9 3.9 4.3 4.3 4.5
7.2 7.4 7.8 7.2 7.4 7.3 7.5 7.5 7.3 7.4 7.7 7.9 7.8 7.5 7.2 7.4 7.4 7.3 7.1 6.6 5.6 5.4 5.3 4.6 4.3 3.5 2.6 2.9 3.0 3.5 2.3 2.2 2.8 3.6 3.9 4.1 4.2 4.0 4.0 4.3 4.5 4.6 4.9
6.9 7.3 7.5 8.0 7.8 7.6 7.6 7.3 7.5 7.2 7.4 7.6 7.2 7.3 7.1 7.3 7.2 6.9 6.7 5.9 5.7 5.6 5.4 5.4 4.0 3.5 3.1 3.0 3.2 3.0 1.7 2.2 3.0 3.8 4.0 4.2 4.1 4.2 4.2 4.4 4.5 4.8 5.1
6.3 6.2 6.5 7.7 8.2 8.0 7.7 7.5 7.1 6.8 6.9 7.0 7.1 7.1 7.1 7.3 7.1 6.8 6.0 5.3 5.6 5.7 5.1 4.3 3.9 3.3 3.2 3.0 3.3 2.2 1.8 2.8 3.5 3.8 4.1 4.1 4.1 4.2 4.2 4.4 4.7 5.0 5.2
6.4 6.1 6.1 6.9 7.5 7.9 7.5 7.5 7.3 6.9 6.8 6.8 7.2 7.4 7.0 7.2 6.9 6.7 6.3 5.9 5.3 5.2 4.2 4.0 3.4 3.3 3.1 3.3 3.0 1.7 2.5 3.4 3.7 3.9 4.0 4.0 4.1 4.1 4.4 4.6 4.8 5.1 5.4
7.1 6.8 6.6 6.7 6.5 6.4 6.7 6.7 6.8 6.8 6.9 7.0 7.1 7.2 6.9 7.2 6.9 6.4 5.7 5.5 5.0 4.4 4.0 3.5 3.3 3.2 3.3 3.3 2.1 2.3 3.2 3.5 3.8 3.8 4.0 4.2 4.2 4.3 4.4 4.7 5.0 5.2 5.4
6.3 6.5 6.0 6.2 6.0 6.2 6.8 6.9 7.0 7.1 7.1 6.8 6.8 7.0 6.8 6.5 6.1 5.6 5.4 5.3 4.1 3.8 3.3 3.2 3.1 3.2 3.4 2.4 2.3 2.9 3.4 3.6 3.7 3.9 4.0 4.1 4.3 4.3 4.6 4.7 5.0 5.2 5.4
6.1 6.1 6.2 5.7 6.0 6.0 6.4 6.5 6.5 6.4 6.4 6.2 6.3 6.2 6.2 6.1 5.6 5.4 5.0 4.1 3.8 3.3 3.0 3.0 3.0 3.3 1.9 2.3 2.7 3.3 3.4 3.5 3.7 3.8 4.0 4.3 4.4 4.6 4.7 4.9 5.0 5.2 5.5
Wind_Speed
17 17 15 20 23 20 19 21 20 18 15 11 12 11 12 8 6 5 13 16 15 15 12 5 6 7 6 5 6 4 4 4 2 3 3 3 2 4 3 5 5 9 11
8 9 12 13 21 22 21 20 20 18 17 14 12 8 9 4 6 6 11 16 15 14 11 7 6 7 6 6 5 5 3 2 3 3 3 3 3 3 3 3 3 5 8
13 10 9 11 20 21 20 20 22 22 20 17 10 5 5 4 4 8 8 7 13 14 13 12 8 7 5 5 5 5 6 4 2 4 4 2 2 2 3 3 4 6 4
8 11 10 8 16 22 22 23 21 22 19 19 16 17 16 13 10 10 6 7 10 9 13 13 12 8 5 7 5 4 4 4 4 2 3 3 3 2 4 2 2 1 4
10 13 12 11 18 20 21 22 21 20 20 21 20 16 16 11 6 7 12 9 5 9 13 13 11 9 6 7 8 6 6 3 3 2 2 2 1 2 2 3 5 5 4
11 12 11 12 11 17 19 19 21 22 20 21 21 22 21 16 12 12 11 9 7 4 6 10 10 10 9 8 7 6 7 5 5 3 3 3 3 2 2 3 4 4 4
10 10 11 9 10 17 21 20 22 22 20 22 21 22 21 19 19 17 13 13 9 6 7 8 9 8 8 8 7 7 7 6 4 5 3 2 3 3 3 3 2 3 3
15 11 12 14 12 18 21 23 24 22 21 23 21 19 18 12 12 15 13 11 11 10 9 8 9 10 10 8 7 5 5 6 5 6 4 2 2 2 2 2 2 3 2
12 11 13 14 10 17 22 26 24 22 23 24 19 17 16 16 14 16 15 12 11 9 10 10 10 9 9 8 8 5 6 5 5 5 4 2 1 2 2 2 1 1 2
13 15 14 15 14 17 21 22 23 26 26 23 18 15 16 16 14 15 17 18 15 15 13 11 11 9 8 8 8 5 4 6 4 4 5 3 2 4 4 4 3 3 1
14 14 20 16 10 12 15 18 19 20 20 20 17 18 16 15 14 15 16 16 16 17 16 14 12 10 9 8 7 7 6 7 6 4 5 6 5 4 3 3 3 3 2
16 13 19 17 8 12 14 17 17 19 19 19 17 16 14 13 15 15 15 16 17 17 17 16 14 11 10 8 9 9 7 8 6 6 6 6 5 5 4 3 5 3 2
24 15 10 10 8 11 13 14 16 17 15 17 16 15 14 16 16 15 15 14 16 14 17 17 16 13 11 9 8 7 8 6 6 5 6 6 5 3 3 4 4 2 3
15 19 13 6 5 7 14 15 14 13 14 14 15 15 17 17 16 15 15 15 16 15 11 14 14 14 14 8 11 8 8 6 5 6 6 5 4 5 4 4 2 3 4
19 20 12 7 6 6 7 9 10 13 15 15 15 17 15 13 12 14 15 15 14 14 16 10 13 14 11 9 8 9 8 6 5 5 5 4 6 9 5 2 2 3 3
24 22 9 7 9 9 9 10 11 13 14 15 14 13 13 14 14 13 13 14 14 14 16 14 12 11 8 14 13 11 6 5 5 5 4 4 6 6 6 5 6 4 4
19 18 18 9 10 12 14 15 14 12 13 13 14 15 15 15 15 15 16 15 15 16 15 13 14 12 11 15 13 13 5 5 3 5 4 4 3 5 4 5 7 5 8
20 20 15 10 12 13 13 11 14 16 16 15 14 15 15 15 15 17 17 16 15 16 14 13 11 10 9 15 13 9 7 5 4 5 4 5 4 4 4 3 5 5 5
18 18 18 14 13 13 15 14 15 16 16 17 17 18 18 18 18 18 18 17 16 15 14 13 12 12 10 14 10 8 6 5 5 4 4 5 5 4 5 3 3 5 5
16 19 21 20 15 13 12 15 17 19 20 19 19 19 18 20 20 19 18 16 17 15 12 12 11 14 11 12 12 8 4 5 3 3 4 7 4 4 4 2 2 4 5
15 21 23 21 18 9 15 18 17 20 17 14 16 17 18 19 18 18 16 15 16 15 14 14 11 12 13 11 12 11 5 5 4 3 2 1 4 4 6 4 3 3 4
12 15 18 23 22 12 17 20 21 18 17 18 18 18 18 15 16 21 17 17 16 16 14 12 10 8 9 12 12 12 8 8 5 4 2 2 2 4 5 3 6 6 3
12 10 15 22 24 15 20 20 17 16 18 19 19 19 19 17 17 20 18 15 14 13 11 10 9 8 7 7 13 12 11 9 4 3 4 4 2 0 3 6 6 4 2
10 12 15 18 19 8 10 9 13 16 19 19 19 17 17 17 16 13 13 13 12 11 10 9 9 8 8 7 6 5 5 9 5 4 2 1 3 3 1 3 4 2 2
5 2 7 10 12 12 10 12 14 15 14 14 15 15 13 15 15 12 11 11 10 12 11 10 10 10 9 8 10 10 6 4 4 3 2 2 1 1 2 2 3 3 3
5 3 4 2 7 8 9 10 14 20 20 14 10 11 13 12 11 12 10 12 12 13 11 12 10 4 10 16 15 14 13 11 9 3 2 2 2 2 2 1 3 3 2
Wind_Direction
214 210 203 196 200 197 190 189 186 184 176 175 178 187 190 183 182 174 172 173 180 170 167 147 146 143 139 153 148 115 110 38 19 66 12 25 51 33 60 46 39 26 18
245 225 224 170 195 193 193 190 190 182 185 184 186 190 188 164 172 170 173 177 177 168 164 151 148 140 131 137 132 123 116 102 13 114 94 15 331 340 6 14 36 18 4
225 223 218 181 192 191 190 190 190 187 188 185 173 127 113 108 152 182 177 178 171 170 160 154 150 149 142 143 138 137 136 139 32 69 138 109 224 320 316 4 13 17 359
234 236 223 184 191 195 192 193 188 186 186 180 181 182 183 184 195 183 163 161 166 170 159 155 153 152 141 136 137 140 134 121 140 69 57 85 141 167 314 252 288 16 339
250 249 229 210 192 192 192 195 188 187 183 181 185 184 186 189 165 164 160 162 154 161 160 155 147 145 142 138 137 135 130 113 127 143 147 106 113 122 150 286 326 345 347
246 243 233 232 199 194 189 188 186 190 187 183 185 187 183 175 164 169 169 168 159 152 158 156 148 145 143 145 147 139 134 133 128 140 147 156 163 189 169 223 248 244 291
263 259 259 242 207 195 189 186 189 190 185 187 190 188 185 177 175 170 168 163 160 163 171 156 154 151 147 144 140 136 136 147 146 153 158 151 171 161 176 172 249 251 271
273 258 250 256 210 200 189 186 191 189 185 187 189 189 183 180 178 173 168 169 170 163 167 153 153 151 147 144 138 132 134 135 134 143 147 151 151 142 162 179 186 304 267
287 282 273 269 226 205 194 190 189 190 187 188 182 180 176 175 180 173 166 163 157 159 161 158 153 152 147 143 139 138 134 131 136 141 140 137 119 94 69 80 112 161 312
301 302 285 267 252 219 201 190 186 185 187 186 181 174 179 180 175 167 174 171 164 160 160 157 156 152 147 140 130 120 127 123 134 131 130 114 93 68 59 63 69 77 118
295 299 298 276 237 214 194 186 184 184 184 185 173 177 180 179 176 177 174 175 168 159 160 158 154 149 140 137 126 116 136 129 121 119 111 89 86 77 66 58 58 54 35
301 308 307 279 190 181 179 179 180 183 184 181 175 179 167 168 171 179 180 176 172 167 161 154 149 146 141 137 127 130 139 126 118 115 107 95 93 76 57 63 54 43 49
289 304 315 291 198 170 170 175 175 180 179 178 171 169 167 170 173 176 177 175 169 170 165 153 145 140 135 128 114 111 117 112 119 120 109 107 105 81 67 68 41 11 356
282 299 289 250 296 182 174 173 171 170 164 159 160 167 172 174 173 169 167 170 169 151 153 138 130 130 123 122 115 138 114 113 114 107 115 115 108 105 95 70 21 8 354
290 287 280 238 200 186 176 163 159 162 162 164 169 174 168 170 164 160 157 151 149 141 123 116 120 119 120 119 138 118 101 117 119 120 122 119 110 116 108 96 22 15 325
291 285 256 193 197 207 194 178 173 173 167 166 171 164 160 156 159 153 142 137 135 132 129 128 127 118 108 128 116 102 114 163 148 135 129 121 103 81 63 36 29 348 315
288 289 295 253 230 211 193 187 180 164 167 170 164 166 167 162 152 144 140 138 133 128 123 124 120 125 126 120 120 114 158 135 159 136 141 120 92 77 52 12 355 335 303
321 309 289 276 255 236 209 183 170 173 172 172 168 161 158 158 154 149 142 137 132 130 128 123 118 124 114 115 111 160 127 148 139 131 143 122 99 75 73 3 317 310 299
314 310 305 285 248 206 197 187 180 177 174 173 170 165 162 156 153 150 145 137 133 134 134 135 142 128 124 116 168 148 131 139 132 129 119 112 108 58 5 315 304 313 293
313 309 302 297 266 240 187 186 187 179 181 178 173 164 161 159 156 150 144 145 140 135 130 126 134 125 122 165 171 140 149 135 145 129 104 92 83 23 324 284 257 283 277
314 325 323 310 266 213 179 189 184 192 186 163 160 161 160 158 149 141 144 144 137 132 139 135 135 133 150 175 159 155 158 156 157 151 154 95 31 340 328 326 235 253 292
319 332 326 314 296 204 183 191 193 181 164 156 161 160 156 154 150 142 144 138 139 139 134 132 131 141 152 158 152 162 166 166 151 153 160 155 282 22 7 356 294 327 335
306 335 339 321 310 242 190 192 188 160 155 156 158 157 153 154 152 145 146 138 140 136 134 140 149 155 161 161 162 164 168 154 124 149 161 181 243 129 7 342 3 0 338
318 331 357 322 313 298 200 168 147 155 154 154 152 152 149 146 145 140 140 137 136 137 140 149 159 165 166 158 165 161 153 134 135 136 127 180 249 229 309 350 341 343 294
271 352 14 314 313 314 94 113 122 132 130 136 144 141 140 136 134 129 132 128 134 149 158 169 168 163 166 175 164 164 159 151 160 119 67 48 26 332 306 322 312 305 310
220 189 130 332 358 316 83 104 128 136 135 131 136 140 133 130 125 119 107 87 127 138 137 145 152 119 131 151 160 163 152 158 152 91 131 195 201 212 244 273 277 276 310